TimePDT,TemperatureF,Dew PointF,Humidity,Sea Level PressureIn,VisibilityMPH,Wind Direction,Wind SpeedMPH,Gust SpeedMPH,PrecipitationIn,Events,Conditions,WindDirDegrees,DateUTC
12:10 AM,46.4,32.0,57,30.15,10.0,North,3.5,-,N/A,,Clear,10,2013-09-27 07:10:00
12:30 AM,44.6,32.0,61,30.15,10.0,Calm,Calm,-,N/A,,Clear,0,2013-09-27 07:30:00
12:50 AM,42.8,32.0,66,30.15,10.0,Calm,Calm,-,N/A,,Clear,0,2013-09-27 07:50:00
1:10 AM,42.8,32.0,66,30.15,10.0,NNW,3.5,-,N/A,,Clear,340,2013-09-27 08:10:00
1:30 AM,41.0,32.0,70,30.15,10.0,Calm,Calm,-,N/A,,Clear,0,2013-09-27 08:30:00
1:50 AM,39.2,32.0,75,30.15,10.0,West,3.5,-,N/A,,Clear,280,2013-09-27 08:50:00
2:10 AM,39.2,32.0,75,30.16,10.0,West,4.6,-,N/A,,Clear,280,2013-09-27 09:10:00
2:30 AM,39.2,32.0,75,30.16,10.0,West,4.6,-,N/A,,Clear,280,2013-09-27 09:30:00
2:50 AM,39.2,32.0,75,30.16,10.0,West,6.9,-,N/A,,Clear,270,2013-09-27 09:50:00
3:10 AM,39.2,32.0,75,30.16,10.0,West,5.8,-,N/A,,Clear,260,2013-09-27 10:10:00
3:30 AM,39.2,32.0,75,30.16,10.0,West,5.8,-,N/A,,Clear,270,2013-09-27 10:30:00
3:50 AM,39.2,32.0,75,30.17,10.0,West,6.9,-,N/A,,Clear,270,2013-09-27 10:50:00
4:10 AM,37.4,32.0,81,30.17,10.0,West,5.8,-,N/A,,Clear,260,2013-09-27 11:10:00
4:30 AM,37.4,32.0,81,30.17,10.0,West,6.9,-,N/A,,Clear,270,2013-09-27 11:30:00
4:50 AM,37.4,32.0,81,30.17,10.0,West,5.8,-,N/A,,Clear,270,2013-09-27 11:50:00
5:10 AM,37.4,32.0,81,30.17,10.0,West,5.8,-,N/A,,Clear,270,2013-09-27 12:10:00
5:30 AM,37.4,32.0,81,30.18,10.0,West,6.9,-,N/A,,Clear,280,2013-09-27 12:30:00
5:50 AM,35.6,32.0,87,30.18,10.0,West,4.6,-,N/A,,Clear,270,2013-09-27 12:50:00
6:10 AM,35.6,32.0,87,30.19,10.0,West,4.6,-,N/A,,Clear,280,2013-09-27 13:10:00
6:30 AM,35.6,32.0,87,30.19,10.0,West,5.8,-,N/A,,Clear,280,2013-09-27 13:30:00
6:50 AM,35.6,32.0,87,30.20,10.0,West,5.8,-,N/A,,Clear,270,2013-09-27 13:50:00
7:10 AM,35.6,32.0,87,30.20,10.0,West,5.8,-,N/A,,Clear,280,2013-09-27 14:10:00
7:30 AM,35.6,32.0,87,30.21,10.0,West,5.8,-,N/A,,Clear,270,2013-09-27 14:30:00
7:50 AM,37.4,32.0,81,30.21,10.0,West,4.6,-,N/A,,Clear,280,2013-09-27 14:50:00
8:10 AM,41.0,32.0,70,30.21,10.0,Calm,Calm,-,N/A,,Clear,0,2013-09-27 15:10:00
8:30 AM,42.8,32.0,66,30.21,10.0,Calm,Calm,-,N/A,,Clear,0,2013-09-27 15:30:00
8:50 AM,44.6,33.8,66,30.21,10.0,Calm,Calm,-,N/A,,Clear,0,2013-09-27 15:50:00
9:10 AM,46.4,33.8,62,30.21,10.0,Calm,Calm,-,N/A,,Clear,0,2013-09-27 16:10:00
9:30 AM,46.4,35.6,66,30.21,10.0,Calm,Calm,-,N/A,,Clear,0,2013-09-27 16:30:00
9:50 AM,48.2,35.6,62,30.21,10.0,Calm,Calm,-,N/A,,Clear,0,2013-09-27 16:50:00
10:10 AM,50.0,35.6,58,30.20,10.0,Calm,Calm,-,N/A,,Clear,0,2013-09-27 17:10:00
10:30 AM,51.8,35.6,54,30.19,10.0,Calm,Calm,-,N/A,,Clear,0,2013-09-27 17:30:00
10:50 AM,53.6,37.4,54,30.19,10.0,Calm,Calm,-,N/A,,Clear,0,2013-09-27 17:50:00
11:10 AM,55.4,35.6,47,30.18,10.0,East,3.5,-,N/A,,Clear,100,2013-09-27 18:10:00
11:30 AM,57.2,37.4,48,30.18,10.0,Calm,Calm,-,N/A,,Clear,0,2013-09-27 18:30:00
11:50 AM,59.0,35.6,42,30.17,10.0,East,3.5,-,N/A,,Clear,100,2013-09-27 18:50:00
12:10 PM,59.0,35.6,42,30.17,10.0,ENE,4.6,-,N/A,,Clear,60,2013-09-27 19:10:00
12:30 PM,62.6,35.6,37,30.16,10.0,Calm,Calm,-,N/A,,Clear,0,2013-09-27 19:30:00
12:50 PM,64.4,35.6,34,30.15,10.0,NE,3.5,-,N/A,,Clear,40,2013-09-27 19:50:00
1:10 PM,64.4,32.0,30,30.15,10.0,East,4.6,-,N/A,,Clear,80,2013-09-27 20:10:00
1:30 PM,64.4,35.6,34,30.14,10.0,SSE,5.8,-,N/A,,Clear,150,2013-09-27 20:30:00
1:50 PM,66.2,32.0,28,30.13,10.0,SSE,8.1,-,N/A,,Clear,160,2013-09-27 20:50:00
2:10 PM,66.2,33.8,30,30.12,10.0,South,8.1,-,N/A,,Clear,170,2013-09-27 21:10:00
2:30 PM,68.0,32.0,26,30.12,10.0,SSW,6.9,-,N/A,,Clear,200,2013-09-27 21:30:00
2:50 PM,68.0,32.0,26,30.10,10.0,SSW,4.6,-,N/A,,Clear,210,2013-09-27 21:50:00
3:10 PM,68.0,32.0,26,30.10,10.0,South,4.6,-,N/A,,Clear,180,2013-09-27 22:10:00
3:30 PM,69.8,32.0,25,30.09,10.0,SSE,6.9,-,N/A,,Clear,150,2013-09-27 22:30:00
3:50 PM,69.8,32.0,25,30.09,10.0,SSE,4.6,-,N/A,,Clear,150,2013-09-27 22:50:00
4:10 PM,69.8,32.0,25,30.08,10.0,SE,5.8,-,N/A,,Clear,140,2013-09-27 23:10:00
4:30 PM,69.8,32.0,25,30.08,10.0,SSE,5.8,-,N/A,,Clear,160,2013-09-27 23:30:00
4:50 PM,69.8,32.0,25,30.08,10.0,South,6.9,-,N/A,,Clear,170,2013-09-27 23:50:00
5:10 PM,69.8,30.2,23,30.08,10.0,South,3.5,-,N/A,,Clear,170,2013-09-28 00:10:00
5:30 PM,69.8,30.2,23,30.08,10.0,Calm,Calm,-,N/A,,Clear,0,2013-09-28 00:30:00
5:50 PM,68.0,32.0,26,30.08,10.0,South,3.5,-,N/A,,Clear,180,2013-09-28 00:50:00
6:10 PM,68.0,33.8,28,30.08,10.0,Calm,Calm,-,N/A,,Clear,0,2013-09-28 01:10:00
6:30 PM,62.6,35.6,37,30.08,10.0,WNW,5.8,-,N/A,,Clear,290,2013-09-28 01:30:00
6:50 PM,62.6,37.4,39,30.09,10.0,West,6.9,-,N/A,,Clear,280,2013-09-28 01:50:00
7:10 PM,60.8,37.4,42,30.09,10.0,West,6.9,-,N/A,,Clear,280,2013-09-28 02:10:00
7:30 PM,59.0,37.4,45,30.10,10.0,West,4.6,-,N/A,,Clear,260,2013-09-28 02:30:00
7:50 PM,57.2,37.4,48,30.10,10.0,West,4.6,-,N/A,,Clear,270,2013-09-28 02:50:00
8:10 PM,53.6,37.4,54,30.11,10.0,WNW,5.8,-,N/A,,Clear,300,2013-09-28 03:10:00
8:30 PM,55.4,35.6,47,30.11,10.0,Calm,Calm,-,N/A,,Clear,0,2013-09-28 03:30:00
8:50 PM,53.6,35.6,51,30.12,10.0,WSW,3.5,-,N/A,,Clear,250,2013-09-28 03:50:00
9:10 PM,51.8,37.4,58,30.12,10.0,Calm,Calm,-,N/A,,Clear,0,2013-09-28 04:10:00
9:30 PM,51.8,35.6,54,30.12,10.0,West,4.6,-,N/A,,Clear,260,2013-09-28 04:30:00
9:50 PM,50.0,35.6,58,30.12,10.0,WNW,4.6,-,N/A,,Clear,290,2013-09-28 04:50:00
10:10 PM,48.2,35.6,62,30.13,10.0,WNW,4.6,-,N/A,,Clear,290,2013-09-28 05:10:00
10:30 PM,50.0,35.6,58,30.13,10.0,WNW,3.5,-,N/A,,Clear,290,2013-09-28 05:30:00
10:50 PM,50.0,35.6,58,30.14,10.0,West,3.5,-,N/A,,Clear,280,2013-09-28 05:50:00
11:10 PM,48.2,37.4,66,30.14,10.0,WSW,3.5,-,N/A,,Clear,250,2013-09-28 06:10:00
11:30 PM,48.2,37.4,66,30.13,10.0,West,3.5,-,N/A,,Clear,270,2013-09-28 06:30:00
11:50 PM,46.4,37.4,71,30.13,10.0,West,4.6,-,N/A,,Clear,270,2013-09-28 06:50:00